CST,Max TemperatureF,Mean TemperatureF,Min TemperatureF,Max Dew PointF,MeanDew PointF,Min DewpointF,Max Humidity, Mean Humidity, Min Humidity, Max Sea Level PressureIn, Mean Sea Level PressureIn, Min Sea Level PressureIn, Max VisibilityMiles, Mean VisibilityMiles, Min VisibilityMiles, Max Wind SpeedMPH, Mean Wind SpeedMPH, Max Gust SpeedMPH,PrecipitationIn, CloudCover, Events, WindDirDegrees
2012-2-1,66,47,28,35,26,22,89,58,19,30.21,30.15,30.10,10,10,10,6,1,,0.00,0,,57
2012-2-2,64,46,27,32,27,22,85,51,26,30.26,30.18,30.07,10,10,10,8,2,18,0.00,1,,116
2012-2-3,57,52,46,47,43,29,100,81,38,30.07,29.99,29.91,10,6,1,20,8,30,1.10,8,Rain-Thunderstorm,61
2012-2-4,46,42,37,44,37,30,97,82,73,30.31,30.17,29.99,10,10,3,21,10,28,0.00,8,,301
2012-2-5,50,40,28,32,30,25,85,72,43,30.43,30.37,30.32,10,10,9,14,10,21,0.00,4,,345
2012-2-6,52,38,24,31,26,21,92,69,36,30.37,30.29,30.22,10,10,10,10,1,,0.02,0,,219
2012-2-7,44,37,30,39,35,27,93,86,76,30.44,30.33,30.24,10,8,2,14,4,,0.00,7,Rain,350
2012-2-8,39,36,34,34,30,25,93,80,55,30.52,30.45,30.40,10,7,2,10,7,16,0.00,7,,5
2012-2-9,44,39,34,36,33,28,100,83,61,30.38,30.23,30.15,10,6,2,10,3,,0.02,8,Rain,210
2012-2-10,37,28,18,36,25,5,93,74,43,30.51,30.23,30.09,10,8,3,24,10,30,0.00,5,Rain,325
2012-2-11,28,21,14,9,6,3,80,58,38,30.77,30.68,30.52,10,10,10,15,10,21,0.00,2,,7
2012-2-12,35,22,10,13,8,4,84,53,27,30.71,30.49,30.18,10,10,10,13,4,20,0.00,4,,163
2012-2-13,35,32,30,34,29,24,96,91,73,30.13,29.97,29.78,6,2,1,21,12,30,0.00,8,Rain-Snow,180
2012-2-14,48,34,21,35,27,18,100,84,58,29.99,29.93,29.86,10,5,0,9,2,,0.00,1,Fog,195
2012-2-15,55,48,41,49,44,36,100,90,74,30.09,29.92,29.84,10,4,1,15,8,23,0.09,8,Rain-Thunderstorm,202
2012-2-16,53,42,30,41,33,28,93,78,45,30.34,30.25,30.12,10,6,1,16,8,,0.00,1,,350
2012-2-17,59,44,28,46,36,26,93,73,42,30.21,30.15,30.08,10,9,3,9,1,,0.00,2,Rain,216
2012-2-18,46,42,37,45,33,28,93,72,58,30.19,30.13,30.09,10,10,5,9,6,18,0.00,8,Rain,32
2012-2-19,53,40,27,31,28,24,92,63,40,30.15,30.09,30.01,10,10,10,6,2,,0.00,0,,128
2012-2-20,53,46,39,43,38,28,93,74,58,30.04,29.84,29.68,10,9,1,31,11,46,0.23,5,Rain-Thunderstorm,183
2012-2-21,57,44,30,36,30,23,89,63,27,30.05,29.93,29.83,10,10,10,20,10,29,0.00,1,,237
2012-2-22,69,48,28,38,32,25,89,59,29,29.80,29.61,29.40,10,10,10,20,4,26,0.00,0,,221
2012-2-23,63,52,39,41,34,26,76,55,41,29.88,29.48,29.24,10,10,10,24,11,37,0.00,1,,313
2012-2-24,50,39,28,26,22,18,75,54,29,30.29,30.16,29.90,10,10,10,24,15,32,0.00,0,,315
2012-2-25,55,38,21,30,24,19,92,57,26,30.38,30.23,30.03,10,10,10,18,4,24,0.00,0,,155
2012-2-26,63,54,44,37,30,24,74,43,31,30.21,30.05,29.96,10,10,10,20,13,29,0.00,1,,208
2012-2-27,57,47,37,28,26,22,65,45,30,30.46,30.36,30.23,10,10,8,12,7,20,0.00,2,,45
2012-2-28,66,57,48,59,47,27,87,68,43,30.23,29.86,29.56,10,9,1,29,10,40,0.28,8,Rain-Thunderstorm,163
2012-2-29,63,49,33,37,29,23,85,48,22,29.94,29.88,29.71,10,10,7,100,99,,0.00,1,,210